Location: Rumah Dana
(3.1167°N, 113.0167°E)
Time: 04:38:09
(UTC+00:00)

GPS 2-17 Rocket1 - Pass Details

Date: 20 January 2026
Orbit: 545 x 615 km, 20.3° (Epoch: 11 February)

Event Time Altitude Azimuth Distance (km) Brightness Sun altitude
Rises 11:39:39 0° 295° (WNW) 2,857 7.2 -15.3°
Reaches altitude 10° 11:42:01 10° 297° (WNW) 1,949 6.2 -15.9°
Maximum altitude 11:46:34 70° 21° (NNE) 637 2.9 -16.9°
Enters shadow 11:48:38 31° 97° (E) 1,047 3.7 -17.4°
